Regional Weather Roundup
Issued by NWS

Home | Current Version | Previous Version | Text Only | Print | Product List | Glossary On
Versions: 1 2 3 4 5 6 7 8 9 10 11 12 13 14 15 16 17 18 19 20 21 22 23 24 25 26 27 28 29 30 31 32 33 34 35 36 37 38 39 40 41 42 43 44 45 46 47 48 49 50
000
ASUS43 KMKX 040800
RWRWI

WISCONSIN REGIONAL WEATHER ROUNDUP
NATIONAL WEATHER SERVICE MILWAUKEE/SULLIVAN WI
300 AM CDT WED MAY 04 2016

NOTE: "FAIR" INDICATES FEW OR NO CLOUDS BELOW 12,000 FEET WITH NO
SIGNIFICANT WEATHER AND/OR OBSTRUCTIONS TO VISIBILITY.

WIZ001-002-006>008-014>016-023>028-040900-
NORTHWEST WISCONSIN

CITY           SKY/WX    TMP DP  RH WIND       PRES   REMARKS
SUPERIOR ARPT  CLEAR     48  32  53 N13G20    29.89F
ASHLAND        CLEAR     35  33  92 SW3       29.87S
HAYWARD        CLEAR     36  30  79 CALM      29.87S
SIREN          CLEAR     45  31  57 N3        29.90R
CUMBERLAND     CLEAR     43  32  65 N5        29.87S
RICE LAKE      CLEAR     45  32  60 N6        29.89R
CHETEK         CLEAR     46  34  62 N8        29.87R
LADYSMITH      CLEAR     41  35  77 N6        29.86R
EAU CLAIRE     CLEAR     46  34  62 N12       29.84R
MENOMONIE      CLEAR     48  32  53 N16G24    29.86R
NEW RICHMOND   CLEAR     47  32  56 N6        29.88R
OSCEOLA        CLEAR     49  33  54 N6        29.92R
$$

WIZ003>005-009-010-017-018-040900-
NORTH CENTRAL WISCONSIN

CITY           SKY/WX    TMP DP  RH WIND       PRES   REMARKS
MANITOWISH WTR CLOUDY    40  37  86 N7        29.81S
ARBOR VITAE    CLOUDY    42  37  83 N5        29.80S
WOODRUFF       CLOUDY    42  37  83 N5        29.80S
RHINELANDER    MOCLDY    40  34  79 N6        29.79S
EAGLE RIVER    CLOUDY    39  33  78 N6        29.78S WCI  35
LAND O LAKES   CLOUDY    40  35  81 N9        29.79S WCI  35
PHILLIPS       MOCLDY    40  35  80 N5        29.81S
TOMAHAWK       PTCLDY    37  34  90 NW3       29.80F
MEDFORD        MOCLDY    41  37  85 N15G22    29.80R
MERRILL        CLOUDY   N/A N/A N/A N8        29.80R
$$

WIZ029-030-035-036-043>047-040900-
CENTRAL WISCONSIN

CITY           SKY/WX    TMP DP  RH WIND       PRES   REMARKS
WAUSAU         CLOUDY    44  38  79 N10       29.77R
MOSINEE        PTCLDY    41  39  93 N12G18    29.78R
MARSHFIELD     CLOUDY    45  38  76 N10G22    29.78R
STEVENS POINT  MOCLDY    40  39  96 N8        29.76R WCI  35
WAUPACA        CLEAR     45  43  91 N7        29.74R
WAUTOMA        CLEAR     45  41  86 N9        29.74R
WISC RAPIDS    CLEAR     43  39  86 N13G24    29.78R
CAMP DOUGLAS   FOG       41  41 100 NW3       29.75R VSB 3/4
$$

WIZ011>013-019>022-031-037>040-048>050-040900-
NORTHEAST WISCONSIN

CITY           SKY/WX    TMP DP  RH WIND       PRES   REMARKS
ANTIGO         CLOUDY    39  35  85 N16G24    29.76R WCI  30
SHAWANO        PTCLDY    44  39  81 N13       29.74R
OCONTO         CLEAR     42  40  93 N10G22    29.72R
STURGEON BAY   PTCLDY    43  36  75 N15G24    29.72S
GREEN BAY      LGT RAIN  45  40  82 N10       29.71S
MANITOWOC      NOT AVBL
APPLETON       CLOUDY    45  43  93 N14       29.70R
CLINTONVILLE   CLEAR     43  41  93 N8        29.73S
OSHKOSH        PTCLDY    45  41  86 N12       29.70R
$$

WIZ032>034-041-042-053>061-040900-
SOUTHWEST WISCONSIN

CITY           SKY/WX    TMP DP  RH WIND       PRES   REMARKS
LA CROSSE      CLEAR     49  42  77 N10       29.79R
SPARTA         PTCLDY    38  38 100 N5        29.78R FOG     WCI  34
VIROQUA        CLEAR     45  45 100 N8        29.75S
BOSCOBEL       FOG       45  45 100 CALM      29.74R VSB<1/4
PRAIRIE DU CHI MOCLDY    47  46  96 CALM      29.74R FOG
PLATTEVILLE      N/A     45  45 100 NW6       29.71R
$$

WIZ056-057-062-063-064-067-068-040900-
SOUTH CENTRAL WISCONSIN

CITY           SKY/WX    TMP DP  RH WIND       PRES   REMARKS
REEDSBURG      CLEAR     45  44  98 N8        29.72R
BARABOO/DELLS  CLEAR     45  43  94 N5        29.72R
LONE ROCK      NOT AVBL
MINERAL POINT  FOG       45  45 100 NW5       29.70S VSB 3/4
MADISON        CLEAR     45  43  93 N8        29.69R
MIDDLETON      CLEAR     45  45 100 NW6       29.70S
WATERTOWN      CLOUDY    46  46 100 NW7       29.67R
MONROE         CLEAR     45  45 100 NW9       29.67F
JANESVILLE     PTCLDY    46  45  93 NW7       29.67S
$$

WIZ051-052-058>065-066-070>072-040900-
SOUTHEAST WISCONSIN

CITY           SKY/WX    TMP DP  RH WIND       PRES   REMARKS
MILWAUKEE      CLOUDY    49  46  90 N9        29.65S
WAUKESHA       CLOUDY    45  43  93 NW5       29.66S
MILWAUKEE/TIMM CLOUDY    46  45  93 N6        29.66R
RACINE         CLOUDY    47  44  90 N8        29.66R
BURLINGTON     CLOUDY    46  46  99 NW5       29.65S
KENOSHA        CLOUDY    50  47  89 N6        29.64S
FOND DU LAC    MOCLDY    47  43  86 NE14G23   29.69R
SHEBOYGAN      PTCLDY    46  41  82 N13G18    29.67R
WEST BEND      MOCLDY    45  45 100 N8        29.66R
JUNEAU         CLEAR     44  43  97 NW6       29.69S
$$

LSZ147-162-040900-
LAKE SUPERIOR

STATION/POSITION TIME  TEMP    WIND        PRES    WAVE
                       AIR SEA DIR/SP/G            HT/PER
                 (UTC) (F)     (DEG/KT/KT) (MB)    (FT/S)
W MID LAKE BUOY  0650   42 37  290/ 10/ 10 1010.8R   1/ 4
DEVILS ISLAND    0700   46     330/ 15/ 16 1011.8R
SAXON HARBOR     0700   40     210/  2/  2 1010.5S
$$

LMZ867-665-643>646-040900-
LAKE MICHIGAN

STATION/POSITION TIME  TEMP    WIND        PRES    WAVE
                       AIR SEA DIR/SP/G            HT/PER
                 (UTC) (F)     (DEG/KT/KT) (MB)    (FT/S)
CHAMBERS ISLAND  0700   43     330/ 16/ 21 1006.4S
N MID LAKE BUOY  0650   40 38  310/ 16/ 19 1004.3F   2/ 5
NORTHPORT PIER   0700   41     320/ 17/ 20 1005.8S
ALGOMA LAKESHORE 0715          360/ 18/ 23   N/A
KEWAUNEE LAKESHO 0700   45     360/  8/ 14 1004.8R
SHEBOYGAN LAKESH 0700   46     350/ 10/ 11 1004.8S
PORT WASHINGTON  0700   49     360/  5/  8 1005.1S
S MID LAKE BUOY  0650   45 41  290/ 10/ 14 1002.7R   1/ 3
KENOSHA   LAKESH 0700   50     350/  7/ 11 1004.1R
$$

TC  - TEMPERATURE IN CELSIUS
VSB - VISIBILITY IN STATUTE MILES
WCI - WIND CHILL INDEX
HX  - HEAT INDEX




USA.gov is the U.S. government's official web portal to all federal, state and local government web resources and services.